Tracking 19709 objects as of 20-Jun-2019
HD Live streaming from Space Station
objects crossing your sky now

FLOCK 3M 3

Track FLOCK 3M 3 now!
10-day predictions
FLOCK 3M 3 is classified as:


NORAD ID: 42996
Int'l Code: 2017-068K
Perigee: 501.8 km
Apogee: 521.8 km
Inclination: 97.4 °
Period: 94.7 minutes
Semi major axis: 6882 km
RCS: Unknown
Launch date: October 31, 2017
Source: United States (US)
Launch site: AIR FORCE WESTERN TEST RANGE (AFWTR)
aabbcc
Your satellite tracking list
Your tracking list is empty




NASA's NSSDC Master Catalog

Two Line Element Set (TLE):
1 42996U 17068K   19170.87694557  .00000980  00000-0  48042-4 0  9990
2 42996  97.3736 279.4962 0014494 306.8325  53.1581 15.20384176 90486
Source of the keplerian elements: AFSPC